カタログに戻る

IDEFIX/ARIANE 42P

運用中アマチュア無線SSO
NORAD 27422·PAYLOAD·🇫🇷 France

打ち上げ May 4, 2002 から Guiana Space Centre

Loading…

次のパス (今後24時間)

TLE

最新Source: Space-Track

元期: Sep 14, 2026, 06:32 UTC

1 27422U 02021B   26257.27283702  .00000147  00000-0  72316-4 0  9990
2 27422  98.5977 193.8022 0011869 358.4421   1.6723 14.31116089270991

AllMySatでIDEFIX/ARIANE 42Pをリアルタイム追跡

Download on the App Store